Date,TemperatureHighF,TemperatureAvgF,TemperatureLowF,DewpointHighF,DewpointAvgF,DewpointLowF,HumidityHigh,HumidityAvg,HumidityLow,PressureMaxIn,PressureMinIn,WindSpeedMaxMPH,WindSpeedAvgMPH,GustSpeedMaxMPH,PrecipitationSumIn
2013-1-1,48.2,42.4,0.0,44.0,35.0,-5.7,86,75,67,30.26,29.99,22,1,22,0.00
2013-1-2,43.3,38.3,34.7,36.0,28.6,26.9,78,68,59,30.31,30.21,8,0,8,0.00
2013-1-3,53.9,42.0,32.3,33.7,29.2,25.3,76,62,42,30.43,30.28,12,0,12,0.00
2013-1-4,56.4,44.1,0.0,35.2,30.3,-11.3,64,57,44,30.48,30.31,0,0,0,0.00
2013-1-5,59.7,47.9,41.9,39.4,37.0,-10.2,80,67,47,30.32,30.16,8,0,8,0.00
2013-1-6,62.4,47.6,37.7,35.4,29.8,26.1,73,52,29,30.37,30.24,11,0,11,0.00
2013-1-7,56.4,46.2,35.7,35.1,30.2,24.6,67,54,41,30.30,30.05,12,0,12,0.00
2013-1-8,50.5,49.1,48.0,46.3,41.1,32.5,89,75,54,30.07,29.93,10,0,10,1.69
2013-1-9,56.4,53.0,48.9,54.7,51.1,45.6,95,93,90,30.09,29.88,16,1,16,1.08
2013-1-10,60.9,55.4,51.8,55.0,49.9,44.9,95,82,66,29.95,29.86,12,1,12,0.04
2013-1-11,70.8,60.0,49.8,61.1,50.2,43.4,87,71,47,29.91,29.72,12,2,12,0.00
2013-1-12,67.8,56.7,38.8,63.2,50.4,29.4,92,80,65,29.93,29.65,13,3,14,0.10
2013-1-13,49.8,40.0,33.8,31.5,24.6,20.3,69,55,40,30.25,29.90,14,4,14,0.00
2013-1-14,51.6,40.0,33.2,27.3,22.6,18.8,59,50,38,30.31,30.17,11,2,11,0.00
2013-1-15,40.8,37.3,34.3,30.8,26.2,21.9,75,64,53,30.20,30.12,11,1,11,0.02
2013-1-16,53.7,40.3,29.3,31.4,21.4,18.2,64,48,31,30.27,30.12,10,0,10,0.00
2013-1-17,64.5,49.7,39.0,36.1,30.3,22.8,65,48,32,30.46,30.20,10,1,10,0.00
2013-1-18,65.6,51.3,39.0,36.7,33.1,28.4,68,51,32,30.47,30.22,11,1,11,0.00
2013-1-19,68.9,55.3,44.9,45.3,40.3,34.1,72,58,29,30.22,30.08,11,1,11,0.00
2013-1-20,73.0,56.6,44.4,47.3,41.0,36.6,77,58,37,30.18,30.02,8,0,8,0.00
2013-1-21,63.3,52.2,44.9,40.3,32.6,26.3,67,48,35,30.27,30.07,11,1,11,0.00
2013-1-22,68.1,53.9,42.9,48.2,37.5,27.5,67,54,44,30.27,30.12,9,0,9,0.00
2013-1-23,77.9,63.7,54.1,55.6,51.5,44.9,79,66,46,30.22,30.07,11,1,11,0.00
2013-1-24,81.5,66.3,56.1,60.2,52.9,43.5,80,63,46,30.14,29.97,9,0,9,0.00
2013-1-25,58.6,52.7,50.3,47.9,42.7,38.3,81,69,58,30.17,29.99,11,1,11,0.00
2013-1-26,57.7,51.9,48.5,49.0,44.5,38.4,87,76,64,30.19,30.05,7,0,7,0.00
2013-1-27,73.7,62.9,51.8,62.5,56.4,48.1,93,80,59,30.05,29.87,16,2,16,0.00
2013-1-28,77.5,71.5,67.2,66.0,63.7,62.1,87,77,62,29.95,29.79,14,4,14,0.00
2013-1-29,78.6,67.8,56.1,66.1,58.4,31.4,84,73,39,29.80,29.40,15,4,15,0.33
2013-1-30,56.1,49.6,43.8,36.0,27.7,20.1,65,44,28,30.10,29.63,13,3,13,0.00
2013-1-31,70.3,53.2,40.1,30.7,26.7,23.3,55,38,19,30.28,30.03,10,1,10,0.00
2013-2-1,63.3,49.3,37.2,39.2,26.9,18.0,54,42,33,30.36,30.11,11,1,11,0.00
2013-2-2,71.4,58.6,50.1,43.9,37.7,32.7,68,48,29,30.28,30.09,11,1,11,0.00
2013-2-3,72.5,57.9,45.5,39.1,32.3,27.7,63,41,22,30.28,29.93,11,1,11,0.00
2013-2-4,75.7,64.2,56.6,56.3,48.6,28.5,77,58,30,29.94,29.74,11,2,11,0.00
2013-2-5,71.4,63.7,61.5,60.4,57.6,55.0,87,81,68,29.97,29.82,7,0,7,0.00
2013-2-6,77.3,65.7,58.8,62.4,56.9,53.6,98,75,49,29.97,29.80,10,2,10,0.00
2013-2-7,79.5,66.5,58.1,59.4,53.4,42.4,87,65,29,30.07,29.76,12,4,12,0.00
2013-2-8,70.3,58.1,48.3,44.4,34.6,27.3,62,44,22,30.22,30.07,10,1,10,0.00
2013-2-9,58.1,53.3,50.9,56.1,45.2,33.5,94,75,44,30.09,29.69,12,2,12,0.00
2013-2-10,69.4,60.3,53.2,62.8,38.0,24.2,96,50,20,29.98,29.60,16,1,16,0.78
2013-2-11,59.3,54.7,51.6,39.8,33.7,29.3,62,45,36,30.12,29.95,9,1,9,0.00
2013-2-12,51.6,49.4,42.6,46.6,43.3,36.5,86,80,62,30.01,29.81,14,1,14,0.24
2013-2-13,63.3,49.6,39.9,39.4,35.6,32.6,81,61,34,30.12,29.97,9,1,10,0.00
2013-2-14,73.0,56.5,44.7,41.1,36.7,32.9,71,51,24,30.06,29.94,7,0,7,0.00
2013-2-15,57.5,51.0,42.9,38.6,29.2,20.1,58,44,28,30.35,30.05,11,2,11,0.00
2013-2-16,62.7,48.0,36.3,30.8,26.0,21.3,57,43,28,30.37,30.13,22,0,22,0.00
2013-2-17,73.2,57.8,43.8,44.5,33.3,28.0,60,42,21,30.13,29.85,11,3,11,0.00
2013-2-18,77.0,63.5,56.4,55.9,43.4,30.9,78,52,26,30.09,29.72,11,4,11,0.00
2013-2-19,69.6,56.8,46.5,32.9,28.0,23.9,50,35,19,30.29,30.07,9,1,9,0.00
2013-2-20,56.4,48.8,44.7,41.3,37.7,32.9,74,66,41,30.13,29.74,10,3,10,0.08
2013-2-21,70.1,53.6,44.7,47.8,38.5,27.6,89,62,22,29.90,29.56,33,2,33,0.16
2013-2-22,56.3,44.8,35.6,36.7,27.3,22.1,62,51,37,30.12,29.89,10,1,10,0.00
2013-2-23,62.4,46.4,0.0,32.8,27.6,-16.4,63,49,33,30.07,29.88,9,0,9,0.00
2013-2-24,73.7,54.6,0.0,44.7,34.9,-16.9,67,48,31,29.88,29.64,9,2,9,0.00
2013-2-25,61.5,51.8,0.0,49.1,38.1,-12.0,74,61,36,29.65,29.43,10,3,10,0.00
2013-2-26,63.3,49.1,39.9,35.2,32.0,30.5,72,54,32,29.87,29.65,12,2,12,0.00
2013-2-27,60.6,50.0,41.7,32.7,27.4,18.6,64,44,23,30.20,29.84,11,1,11,0.00
2013-2-28,62.4,49.6,39.0,30.2,26.0,23.0,62,42,24,30.27,30.13,10,1,10,0.00
2013-3-1,61.8,49.2,39.9,32.4,28.0,23.6,56,45,32,30.27,30.14,22,1,22,0.00
2013-3-2,61.5,46.9,35.2,27.9,25.2,22.6,64,44,27,30.40,30.18,22,1,22,0.00
2013-3-3,73.0,57.8,43.1,40.0,30.2,22.1,45,36,25,30.19,29.74,22,4,22,0.00
2013-3-4,87.4,70.2,57.0,48.0,40.8,31.2,56,38,15,29.77,29.54,10,2,10,0.00
2013-3-5,65.1,55.2,48.7,42.5,25.5,18.1,52,33,18,30.32,29.77,11,3,11,0.00
2013-3-6,65.3,52.3,40.2,25.6,22.1,18.3,51,32,19,30.41,30.16,7,0,7,0.00
2013-3-7,73.9,59.3,46.2,36.9,27.7,22.0,44,32,16,30.19,30.04,9,1,9,0.00
2013-3-8,62.4,60.5,57.9,55.8,52.0,36.6,82,74,40,30.14,29.93,9,1,9,0.00
2013-3-9,69.9,63.0,0.0,64.5,58.2,-3.7,89,84,78,29.93,29.60,10,3,10,0.78
2013-3-10,62.6,53.5,46.2,59.3,38.6,30.7,89,58,40,30.05,29.68,22,1,22,0.12
2013-3-11,65.1,49.9,37.0,32.9,27.2,20.5,66,44,23,30.10,29.95,7,0,7,0.00
2013-3-12,72.6,58.0,45.6,35.2,29.3,25.4,50,35,23,30.27,29.99,9,1,9,0.00
2013-3-13,73.9,60.3,48.5,38.2,35.3,31.2,61,41,26,30.40,30.25,8,0,8,0.00
2013-3-14,80.4,65.9,53.7,45.7,40.5,33.8,54,40,29,30.30,30.11,8,1,8,0.00
2013-3-15,83.4,70.4,59.1,52.8,47.0,41.6,70,46,25,30.12,29.84,8,2,8,0.00
2013-3-16,83.1,71.7,60.4,58.4,52.9,44.9,73,53,41,29.84,29.64,16,2,16,0.00
2013-3-17,75.9,68.8,62.6,60.3,53.0,46.6,78,58,44,29.76,29.64,8,1,8,0.00
2013-3-18,74.8,66.5,61.8,59.9,48.3,38.7,86,54,38,29.97,29.59,9,0,9,0.00
2013-3-19,70.8,62.2,54.1,43.2,38.0,32.9,56,41,34,30.09,29.91,8,1,8,0.00
2013-3-20,71.7,61.9,53.2,38.5,33.5,28.0,55,36,22,30.27,29.99,8,0,8,0.00
2013-3-21,70.1,60.9,56.4,53.8,37.2,27.4,61,42,32,29.99,29.55,9,2,9,0.00
2013-3-22,65.8,54.3,51.0,59.5,45.0,43.0,81,71,60,29.81,29.57,8,1,8,0.00
2013-3-23,55.0,52.1,48.7,49.2,46.4,43.1,88,81,76,29.81,29.63,33,0,33,0.04
2013-3-24,58.1,47.5,39.0,47.9,29.4,20.9,88,52,30,30.14,29.79,12,2,12,0.02
2013-3-25,57.0,46.0,36.1,24.9,21.4,17.3,55,39,22,30.36,30.14,10,0,10,0.00
2013-3-26,61.7,49.3,37.9,27.7,23.0,20.5,53,37,24,30.46,30.24,5,0,5,0.00
2013-3-27,71.2,58.6,46.2,42.8,32.7,23.0,49,38,30,30.26,30.02,9,2,9,0.00
2013-3-28,70.7,63.2,55.2,56.7,51.3,42.6,74,65,49,30.17,30.02,8,2,8,0.00
2013-3-29,77.5,68.5,61.5,58.5,56.5,55.1,80,66,49,30.13,29.97,15,2,15,0.00
2013-3-30,76.8,67.0,60.0,63.1,58.7,54.2,87,75,60,30.07,29.86,8,1,8,0.71
2013-3-31,76.4,72.3,66.2,59.1,55.4,51.9,67,56,46,29.95,29.88,8,1,8,0.00
2013-4-1,80.2,69.8,59.0,53.2,50.4,46.0,73,52,31,30.04,29.90,9,0,9,0.00
2013-4-2,70.8,67.0,58.6,62.1,57.3,44.3,82,71,51,29.98,29.86,9,2,9,0.00
2013-4-3,58.8,52.2,47.3,49.8,46.0,42.7,86,80,59,30.12,29.87,18,1,18,0.70
2013-4-4,50.5,46.9,43.8,42.8,40.8,39.6,88,79,71,30.17,30.07,8,0,8,0.00
2013-4-5,66.9,55.4,43.3,49.2,43.7,37.7,82,67,47,30.21,29.98,22,0,22,0.00
2013-4-6,74.8,65.7,57.0,57.9,52.2,45.1,73,62,53,29.98,29.78,20,2,20,0.00
2013-4-7,73.9,71.6,66.9,62.4,61.2,56.8,74,70,66,29.83,29.70,15,1,15,0.00
2013-4-8,75.0,71.0,66.9,64.9,62.4,58.5,80,74,70,29.73,29.62,16,2,16,0.00
2013-4-9,79.7,73.8,69.4,67.3,64.7,62.2,83,73,63,29.68,29.59,16,2,16,0.00
2013-4-10,74.4,48.9,40.8,67.4,42.1,35.4,85,78,59,29.95,29.66,14,2,14,0.27
2013-4-11,62.9,50.6,42.0,40.7,34.9,29.5,73,56,39,29.94,29.77,9,0,9,0.00
2013-4-12,73.9,61.8,48.7,48.2,43.9,39.3,74,54,33,29.96,29.81,8,0,8,0.00
2013-4-13,77.3,68.8,60.4,50.3,47.5,43.5,62,48,34,29.95,29.73,9,1,9,0.00
2013-4-14,80.9,71.3,61.7,65.7,57.8,48.3,74,63,52,29.74,29.50,15,2,15,0.00
2013-4-15,85.6,77.4,70.3,68.3,66.0,64.4,85,69,50,29.73,29.56,16,2,16,0.00
2013-4-16,86.1,78.5,72.3,69.0,66.1,63.1,79,67,51,29.86,29.72,17,2,17,0.00
2013-4-17,84.5,78.4,73.9,70.1,68.0,66.4,86,71,57,29.85,29.58,17,2,17,0.00
2013-4-18,77.5,57.0,48.5,70.7,46.1,34.8,85,68,48,30.11,29.51,18,1,18,0.85
2013-4-19,62.7,52.8,41.7,37.6,32.2,25.3,72,48,27,30.24,30.09,6,0,6,0.00
2013-4-20,70.3,60.8,50.9,37.6,33.7,29.6,52,38,24,30.15,29.96,9,2,9,0.00
2013-4-21,70.7,63.2,55.2,51.0,45.8,34.2,62,53,36,30.15,30.02,9,0,9,0.00
2013-4-22,77.9,68.8,58.8,58.5,53.5,46.4,74,59,48,30.06,29.80,17,1,17,0.00
2013-4-23,70.8,56.5,43.5,61.3,48.5,37.5,84,74,63,30.16,29.75,14,1,14,0.02
2013-4-24,63.1,50.8,39.9,42.4,35.6,31.2,80,58,40,30.28,30.15,22,0,22,0.00
2013-4-25,73.0,63.8,54.6,46.0,40.1,34.6,53,42,31,30.29,30.09,8,0,8,0.00
2013-4-26,75.9,68.2,62.7,65.7,54.8,43.1,79,63,44,30.12,29.92,18,1,18,0.00
2013-4-27,74.4,69.6,64.9,65.6,59.3,55.0,86,70,55,30.09,29.94,7,0,7,0.00
2013-4-28,79.3,69.6,60.0,64.9,59.2,51.8,79,70,58,30.01,29.81,7,0,7,0.00
2013-4-29,86.3,76.6,67.2,67.1,60.9,55.1,78,60,38,29.87,29.75,14,0,14,0.00
2013-4-30,81.3,74.2,67.1,64.6,61.2,57.5,78,64,53,29.80,29.71,14,0,14,0.00
2013-5-1,79.8,74.2,69.4,67.0,64.0,61.4,83,71,59,29.92,29.74,8,0,8,0.00
2013-5-2,73.7,54.5,46.0,61.9,44.3,35.3,74,68,62,30.30,29.91,8,2,8,0.00
2013-5-3,65.1,54.0,41.1,35.3,32.1,27.9,71,47,26,30.28,29.97,24,1,24,0.00
2013-5-4,72.5,61.6,49.6,41.4,35.1,27.5,62,40,21,29.98,29.85,30,1,30,0.00
2013-5-5,70.3,62.0,52.5,48.3,42.7,37.6,62,50,42,30.13,29.98,9,0,9,0.00
2013-5-6,76.4,66.7,55.5,53.7,50.3,46.0,72,57,43,30.09,29.95,8,0,8,0.00
2013-5-7,83.4,73.9,63.1,56.0,53.5,50.3,73,51,33,30.03,29.88,9,0,9,0.00
2013-5-8,85.6,77.1,68.3,62.2,55.3,49.9,61,48,33,29.95,29.81,12,1,12,0.00
2013-5-9,78.6,71.1,67.8,66.4,62.6,54.6,88,76,47,29.95,29.80,14,1,14,0.22
2013-5-10,81.3,73.3,67.8,66.3,62.9,56.4,90,72,51,30.02,29.84,10,0,10,0.00
2013-5-11,82.4,73.6,64.5,57.1,53.1,46.4,73,51,32,30.14,30.00,8,0,8,0.00
2013-5-12,79.1,71.6,62.9,54.0,42.7,35.4,57,37,22,30.23,30.10,7,0,7,0.00
2013-5-13,87.6,75.4,63.3,53.6,47.0,39.0,49,37,27,30.19,30.07,13,1,13,0.00
2013-5-14,87.4,78.2,68.0,60.9,55.9,49.3,63,47,33,30.12,29.94,22,1,22,0.00
2013-5-15,77.7,73.8,66.0,69.5,66.0,60.7,89,77,56,30.00,29.68,33,2,33,0.86
2013-5-16,80.4,72.1,65.1,71.4,66.2,60.8,90,82,72,29.79,29.70,10,1,10,0.00
2013-5-17,89.6,80.8,74.3,73.7,71.7,69.9,89,75,58,29.81,29.74,9,1,9,0.00
2013-5-18,92.8,83.6,75.2,72.7,70.4,67.2,80,66,50,29.85,29.72,19,2,19,0.00
2013-5-19,89.0,82.1,73.7,71.2,68.1,64.6,78,63,53,29.80,29.63,20,2,20,0.00
2013-5-20,90.6,82.7,75.9,71.9,69.4,66.3,78,65,53,29.78,29.60,19,2,19,0.00
2013-5-21,83.1,74.0,64.5,71.0,65.8,58.9,84,76,62,29.84,29.64,13,0,13,0.39
2013-5-22,86.0,72.8,60.6,64.1,58.6,54.0,86,64,36,29.91,29.80,7,0,7,0.00
2013-5-23,86.7,79.2,73.4,73.6,69.1,61.0,87,72,59,30.02,29.83,7,1,7,0.00
2013-5-24,84.7,79.2,71.6,73.0,69.8,62.7,82,73,61,30.14,29.96,8,0,8,0.31
2013-5-25,81.8,74.2,70.3,73.2,68.3,65.0,88,82,67,30.14,29.99,16,0,16,0.36
2013-5-26,86.1,78.7,73.0,72.9,70.3,69.0,89,76,61,30.04,29.88,18,1,18,0.00
2013-5-27,85.6,79.2,73.7,70.9,68.5,67.2,81,70,59,29.95,29.76,21,1,21,0.00
2013-5-28,84.3,79.7,74.1,69.2,67.5,66.2,80,67,57,29.86,29.66,18,1,18,0.00
2013-5-29,83.6,77.3,74.1,71.9,69.6,66.7,87,77,66,29.79,29.64,15,2,15,0.25
2013-5-30,88.5,80.9,74.8,73.9,71.2,69.3,85,73,58,29.76,29.65,20,2,20,0.00
2013-5-31,91.9,83.5,77.9,74.7,72.6,70.7,82,70,54,29.81,29.65,19,1,19,0.00
2013-6-1,90.1,81.9,78.9,75.2,71.2,66.7,76,70,61,29.92,29.68,14,0,14,0.00
2013-6-2,87.0,78.3,71.4,75.7,60.8,45.3,96,58,32,30.06,29.91,6,0,6,0.00
2013-6-3,91.4,79.2,68.1,63.1,59.3,57.1,72,53,34,29.97,29.80,7,0,7,0.00
2013-6-4,93.3,83.5,74.4,70.4,66.1,58.7,73,57,44,29.95,29.74,21,1,21,0.00
2013-6-5,92.3,84.6,78.4,70.8,67.7,64.8,71,58,44,29.90,29.72,14,0,14,0.00
2013-6-6,84.0,76.5,71.6,70.2,67.7,65.7,85,75,57,29.92,29.78,8,0,8,0.63
2013-6-7,86.1,76.5,67.2,66.0,59.9,54.9,83,59,37,29.99,29.86,7,0,7,0.00
2013-6-8,89.7,79.8,69.4,62.4,59.9,56.6,71,52,37,29.91,29.75,8,1,8,0.00
2013-6-9,90.3,80.7,71.9,70.8,67.3,60.5,86,65,49,29.92,29.80,8,0,8,1.04
2013-6-10,98.4,85.9,74.3,72.5,66.6,59.3,78,56,30,29.94,29.86,7,0,7,0.00
2013-6-11,95.5,87.1,78.9,74.8,70.1,64.5,77,58,44,29.99,29.88,8,1,8,0.00
2013-6-12,96.6,87.2,79.5,73.8,70.8,66.4,78,60,44,30.02,29.89,12,0,12,0.00
2013-6-13,99.5,89.3,80.2,72.9,69.4,67.2,70,53,37,30.02,29.85,8,0,8,0.00
2013-6-14,96.6,88.3,81.3,73.3,69.9,67.1,68,55,42,29.97,29.85,4,0,4,0.00
2013-6-15,89.7,85.3,80.4,75.0,71.5,67.7,69,64,59,29.98,29.85,8,0,8,0.00
2013-6-16,97.3,87.7,78.6,74.2,70.5,66.2,78,58,42,29.99,29.83,8,0,8,0.00
2013-6-17,93.7,84.5,73.2,75.2,71.5,65.3,83,66,51,30.01,29.81,11,0,11,0.43
2013-6-18,86.7,79.6,73.9,74.9,70.8,67.9,86,75,58,29.99,29.84,9,0,9,0.28
2013-6-19,94.1,82.9,74.8,76.4,71.4,66.4,84,69,53,29.96,29.83,9,0,9,0.00
2013-6-20,96.6,86.9,78.9,73.0,69.9,65.6,77,59,40,30.01,29.88,17,1,17,0.00
2013-6-21,96.9,88.4,79.3,74.0,68.8,64.9,75,54,39,30.03,29.91,15,1,15,0.00
2013-6-22,97.3,88.3,79.3,73.0,68.4,65.6,72,53,39,30.00,29.84,10,2,10,0.00
2013-6-23,96.4,88.5,80.7,72.5,68.7,64.6,73,54,38,29.97,29.84,18,1,18,0.00
2013-6-24,96.8,88.3,79.5,72.7,68.5,65.1,74,53,38,30.00,29.84,9,2,9,0.00
2013-6-25,97.8,89.0,80.4,73.2,68.3,62.8,73,52,35,29.96,29.79,13,2,13,0.00
2013-6-26,99.5,89.8,80.2,74.1,69.5,62.6,72,53,41,29.92,29.81,8,2,8,0.00
2013-6-27,101.8,91.6,82.7,75.2,70.0,66.4,68,50,36,29.98,29.83,22,0,22,0.00
2013-6-28,102.9,91.8,83.4,70.5,66.9,63.1,57,45,32,29.92,29.79,8,0,8,0.00
2013-6-29,99.5,89.9,81.6,71.6,65.3,59.6,65,46,29,29.89,29.77,7,0,7,0.00
2013-6-30,95.1,87.0,80.6,66.5,60.2,54.8,61,42,30,29.92,29.79,8,0,8,0.00
2013-7-1,89.9,82.2,73.2,62.4,57.9,54.7,59,45,31,30.01,29.92,8,0,8,0.00
2013-7-2,90.6,81.4,71.0,60.0,55.1,48.8,60,42,25,30.07,29.97,7,0,7,0.00
2013-7-3,92.8,82.0,71.9,61.3,54.4,47.6,63,41,24,30.03,29.91,6,0,6,0.00
2013-7-4,97.1,85.8,76.2,63.5,58.5,51.7,59,42,24,29.98,29.85,106,1,106,0.00
2013-7-5,98.2,87.8,78.0,64.8,60.7,56.1,59,42,26,29.97,29.83,7,0,7,0.00
2013-7-6,99.1,89.5,81.3,68.2,62.1,56.8,56,41,29,29.92,29.82,8,1,8,0.00
2013-7-7,98.7,89.5,80.9,70.9,65.8,58.5,63,47,34,29.97,29.88,7,0,7,0.00
2013-7-8,98.9,89.0,81.3,74.6,70.0,62.6,72,55,38,30.05,29.94,22,1,22,0.00
2013-7-9,100.9,90.6,81.1,72.5,66.2,59.9,71,47,28,30.09,29.93,8,1,8,0.00
2013-7-10,103.1,93.3,84.5,73.6,68.0,62.4,65,46,29,30.03,29.86,7,0,7,0.00
2013-7-11,102.9,91.7,85.8,73.6,69.3,64.1,62,49,32,29.94,29.84,9,0,9,0.00
2013-7-12,102.0,91.0,80.9,73.1,69.4,64.8,73,52,32,29.94,29.84,6,0,6,0.00
2013-7-13,101.4,92.2,84.3,71.6,67.8,60.6,63,46,33,29.97,29.83,7,0,7,0.00
2013-7-14,88.5,77.7,71.9,69.8,65.3,57.8,84,68,38,30.00,29.86,5,0,5,0.25
2013-7-15,74.3,72.3,70.3,71.5,68.7,65.7,92,88,84,30.05,29.93,0,0,0,0.33
2013-7-16,88.1,78.3,72.5,74.5,71.8,69.6,92,82,57,30.17,30.04,7,0,7,0.04
2013-7-17,90.8,79.7,74.4,76.6,72.6,69.2,90,80,53,30.20,30.10,8,0,8,0.28
2013-7-18,92.6,82.6,74.8,75.5,72.2,69.0,89,73,50,30.16,29.97,5,0,5,0.00
2013-7-19,96.4,85.2,77.7,76.1,71.3,67.4,80,64,41,30.02,29.89,8,0,8,0.00
2013-7-20,96.8,84.9,77.9,76.0,71.1,66.9,78,65,42,29.95,29.81,7,0,7,0.14
2013-7-21,96.9,86.9,77.5,75.5,71.7,68.0,80,62,43,29.90,29.81,7,0,7,0.00
2013-7-22,98.7,89.2,80.6,76.1,72.5,68.7,80,60,40,29.94,29.82,8,1,8,0.00
2013-7-23,99.3,90.6,82.5,78.0,72.6,65.7,75,57,42,29.94,29.79,8,1,8,0.00
2013-7-24,97.5,88.3,81.1,74.2,69.5,66.1,66,55,38,30.03,29.82,8,0,8,0.00
2013-7-25,95.3,87.6,80.6,75.3,71.3,66.9,70,59,47,30.03,29.93,22,0,22,0.00
2013-7-26,92.6,85.7,80.4,79.5,73.0,69.8,83,66,52,29.99,29.84,7,0,7,0.27
2013-7-27,92.6,84.0,76.8,73.5,66.9,61.7,74,58,39,30.00,29.87,9,0,9,0.00
2013-7-28,93.5,84.6,75.0,71.1,67.9,65.1,75,58,43,29.96,29.83,7,0,7,0.00
2013-7-29,96.0,87.9,80.4,75.5,71.1,63.6,78,59,39,29.96,29.87,15,1,15,0.00
2013-7-30,96.8,88.7,81.5,74.7,69.6,63.4,72,55,39,30.05,29.90,19,0,19,0.00
2013-7-31,102.0,92.1,83.1,73.7,69.8,64.3,63,49,37,30.03,29.87,7,0,7,0.00
2013-8-1,101.6,93.9,86.1,76.4,72.3,67.3,70,51,36,29.97,29.84,7,0,7,0.00
2013-8-2,102.0,93.2,84.9,71.5,68.6,63.6,61,46,32,29.92,29.82,7,1,7,0.00
2013-8-3,101.1,92.6,84.2,71.6,67.2,63.1,61,45,31,29.97,29.87,8,1,8,0.00
2013-8-4,100.9,92.2,84.5,73.2,68.8,64.1,67,48,32,30.04,29.88,9,1,9,0.00
2013-8-5,101.4,93.0,84.7,71.0,67.3,61.8,63,45,31,29.97,29.81,8,1,8,0.00
2013-8-6,102.9,93.7,84.0,71.7,66.9,62.0,65,43,30,29.88,29.75,8,1,8,0.00
2013-8-7,103.8,94.0,84.3,72.1,68.0,63.8,62,44,30,29.87,29.72,8,1,8,0.00
2013-8-8,100.4,92.6,84.7,74.6,68.8,62.2,66,47,33,29.86,29.74,8,0,8,0.00
2013-8-9,99.6,90.1,84.3,74.0,68.7,62.2,68,51,31,29.93,29.79,7,0,7,0.16
2013-8-10,96.4,88.3,81.1,76.6,72.4,67.0,80,61,41,30.04,29.92,8,0,8,0.00
2013-8-11,100.0,90.4,81.5,74.1,69.5,64.0,69,52,33,30.04,29.91,7,0,7,0.10
2013-8-12,99.1,90.3,82.2,74.8,70.2,65.9,71,54,37,30.02,29.87,7,0,7,0.00
2013-8-13,97.7,86.8,77.0,79.9,71.2,65.9,85,61,42,29.98,29.85,8,0,8,1.51
2013-8-14,88.5,80.8,76.1,76.4,74.2,71.5,90,81,62,30.00,29.91,9,0,9,0.72
2013-8-15,87.8,81.1,75.5,71.3,66.7,61.7,79,62,50,30.04,29.91,8,0,8,0.00
2013-8-16,86.9,80.2,72.5,69.8,65.4,62.0,81,62,49,30.03,29.91,8,0,8,0.06
2013-8-17,90.1,80.9,71.7,63.7,61.0,58.8,68,52,38,30.08,29.94,6,0,6,0.00
2013-8-18,90.6,82.4,73.4,67.1,63.3,60.0,70,54,39,30.08,29.96,7,0,7,0.00
2013-8-19,94.8,84.7,75.9,67.8,63.0,59.4,68,50,33,30.04,29.90,8,0,8,0.00
2013-8-20,95.1,85.9,76.8,67.0,62.3,58.6,64,47,32,30.02,29.91,5,0,5,0.00
2013-8-21,96.0,86.9,79.1,71.0,66.4,60.8,68,52,39,30.06,29.94,8,0,8,0.00
2013-8-22,96.9,88.5,81.3,72.5,68.6,66.1,67,53,39,30.06,29.89,7,0,7,0.00
2013-8-23,99.6,90.5,83.1,74.4,69.1,64.2,65,51,34,30.00,29.86,6,0,6,0.04
2013-8-24,98.4,89.6,81.3,74.1,69.3,62.4,72,53,32,30.03,29.92,6,0,6,0.00
2013-8-25,97.3,89.4,80.7,77.7,68.2,64.8,87,51,38,30.12,30.01,8,0,8,0.00
2013-8-26,96.6,88.1,80.9,70.7,67.0,61.8,69,51,35,30.14,30.00,8,1,8,0.00
2013-8-27,92.4,84.3,77.9,72.3,69.4,59.0,76,62,45,30.10,29.99,8,1,8,0.00
2013-8-28,96.4,86.7,77.7,73.2,67.3,62.7,73,54,35,30.08,29.95,7,0,7,0.00
2013-8-29,100.2,90.2,80.7,70.3,66.0,63.2,63,46,32,30.05,29.91,6,0,6,0.00
2013-8-30,101.8,91.5,82.5,70.0,65.4,62.3,60,44,30,29.98,29.83,6,0,6,0.00
2013-8-31,102.9,92.4,82.9,70.5,65.2,61.8,60,42,29,29.88,29.75,9,0,9,0.00
2013-9-1,102.7,92.9,84.5,73.9,67.0,62.5,64,44,30,29.86,29.73,7,0,7,0.02
2013-9-2,88.7,84.4,80.0,76.1,73.4,70.5,82,70,58,29.99,29.82,2,0,2,0.10
2013-9-3,96.4,87.0,78.6,74.1,66.4,59.2,75,52,33,29.97,29.85,6,0,6,0.00
2013-9-4,98.4,88.8,78.8,73.0,66.7,60.0,71,50,32,30.01,29.90,6,0,6,0.00
2013-9-5,98.4,89.8,82.4,74.1,67.3,61.0,65,49,32,30.07,29.95,6,0,6,0.00
2013-9-6,97.5,89.9,81.5,72.4,65.9,61.7,65,46,32,30.06,29.90,5,0,5,0.00
2013-9-7,99.1,89.6,82.2,72.6,66.5,60.7,65,48,31,30.01,29.87,8,0,8,0.00
2013-9-8,97.1,87.4,78.6,71.7,66.4,60.7,70,51,35,29.96,29.83,9,0,9,0.00
2013-9-9,96.4,87.6,79.5,70.6,66.7,63.5,68,51,38,29.97,29.87,7,1,8,0.00
2013-9-10,94.6,85.8,80.0,72.5,66.5,60.1,72,54,35,30.07,29.94,7,0,7,0.00
2013-9-11,94.8,85.6,78.2,71.9,68.0,63.9,70,57,39,30.10,29.97,8,0,8,0.00
2013-9-12,96.8,86.9,78.4,70.9,67.4,47.0,72,54,20,30.05,29.89,6,0,6,0.00
2013-9-13,95.9,87.7,80.6,72.0,68.7,65.7,70,54,40,29.95,29.80,6,0,6,0.00
2013-9-14,93.0,86.5,79.7,68.0,63.8,60.8,56,47,39,29.94,29.83,8,0,8,0.00
2013-9-15,94.6,86.6,79.1,71.4,64.7,59.8,60,49,41,30.00,29.90,8,0,8,0.00
2013-9-16,95.0,87.7,80.6,72.0,65.9,59.3,66,50,33,30.06,29.92,61,0,61,0.00
2013-9-17,92.4,86.5,81.6,70.3,66.7,64.4,63,52,43,30.04,29.91,7,0,7,0.00
2013-9-18,96.4,88.1,81.6,71.9,65.8,59.9,68,49,31,29.99,29.84,8,1,8,0.00
2013-9-19,89.0,84.5,77.1,73.0,69.5,63.1,82,62,45,29.97,29.84,8,0,8,0.76
2013-9-20,77.5,75.1,71.2,72.1,70.7,64.7,89,86,81,29.90,29.82,61,1,61,0.81
2013-9-21,83.3,73.9,65.6,64.7,55.6,49.2,80,56,33,29.97,29.84,33,1,33,0.00
2013-9-22,84.9,73.9,63.6,59.2,54.7,50.8,72,53,34,29.92,29.77,6,0,6,0.00
2013-9-23,86.0,75.9,65.8,58.9,54.2,50.1,67,48,31,29.84,29.71,7,0,7,0.00
2013-9-24,91.7,80.3,70.3,68.0,58.8,51.0,75,51,27,29.91,29.80,10,0,10,0.00
2013-9-25,92.4,80.4,68.9,58.6,53.7,50.9,62,42,26,29.88,29.74,5,0,5,0.00
2013-9-26,95.3,83.8,75.0,63.0,56.1,50.8,53,40,27,29.86,29.75,8,0,8,0.00
2013-9-27,88.3,82.3,76.2,71.9,66.9,58.2,70,60,46,29.90,29.80,19,1,19,0.00
2013-9-28,85.6,77.8,70.5,78.0,70.4,62.1,86,78,68,30.02,29.83,8,1,8,0.39
2013-9-29,81.3,73.4,66.0,62.3,56.4,49.1,75,57,35,30.04,29.88,8,0,8,0.00
2013-9-30,86.5,75.6,64.4,62.3,55.7,50.4,72,52,32,29.90,29.78,7,0,7,0.00
2013-10-1,88.5,79.1,70.7,71.9,65.8,61.9,81,65,43,29.91,29.80,8,0,8,0.00
2013-10-2,87.6,80.9,75.7,72.1,70.2,68.2,83,71,54,29.95,29.82,17,1,17,0.00
2013-10-3,90.3,82.5,76.8,73.7,70.3,67.4,83,68,48,29.90,29.76,19,1,19,0.00
2013-10-4,89.4,81.9,75.7,71.4,69.2,66.9,82,67,50,29.89,29.79,18,1,18,0.00
2013-10-5,81.5,68.0,55.9,69.7,56.6,43.4,81,68,49,30.08,29.82,8,1,8,0.20
2013-10-6,75.0,63.0,53.2,50.4,43.1,33.5,83,54,23,30.10,29.99,7,0,7,0.00
2013-10-7,81.1,68.6,57.3,48.3,43.6,40.3,62,42,26,30.12,30.02,7,0,7,0.00
2013-10-8,82.2,70.4,58.8,50.5,47.0,44.1,67,45,28,30.07,29.95,7,0,7,0.00
2013-10-9,82.9,72.9,63.6,57.5,53.6,50.5,69,52,36,30.04,29.93,10,0,10,0.00
2013-10-10,84.0,75.0,67.2,64.5,59.3,54.1,75,59,45,30.02,29.83,17,0,17,0.00
2013-10-11,84.9,77.9,71.7,70.9,67.5,60.5,80,71,62,29.89,29.77,14,1,14,0.00
2013-10-12,90.1,80.2,74.4,75.6,71.6,67.7,84,76,53,30.04,29.83,15,0,15,0.10
2013-10-13,75.9,73.2,71.7,69.3,67.6,66.3,86,82,76,30.18,30.01,7,0,7,0.00
2013-10-14,74.4,72.1,70.5,72.6,69.2,66.8,94,91,82,30.10,29.88,11,1,11,0.47
2013-10-15,76.8,67.7,57.0,72.8,63.9,52.8,91,88,83,30.04,29.86,22,1,22,0.57
2013-10-16,66.7,60.0,56.1,54.1,51.1,47.1,89,74,57,30.07,29.97,13,1,13,0.19
2013-10-17,72.3,61.4,51.4,50.4,47.0,43.7,75,60,40,30.09,29.94,5,0,5,0.00
2013-10-18,68.5,62.6,55.0,58.9,52.4,46.8,79,69,57,30.07,29.85,8,0,8,0.04
2013-10-19,68.1,55.6,44.9,47.0,41.2,37.8,77,60,39,30.18,30.02,9,1,9,0.00
2013-10-20,73.2,60.9,50.1,46.6,43.6,40.8,74,55,35,30.03,29.83,22,1,22,0.00
2013-10-21,73.2,63.3,58.2,60.9,52.0,46.4,77,67,55,30.08,29.85,8,0,8,0.00
2013-10-22,76.6,62.5,49.8,48.2,45.0,39.6,73,55,33,30.12,29.98,2,0,2,0.00
2013-10-23,82.5,68.4,55.9,52.0,49.2,45.6,71,52,34,30.08,29.98,7,0,7,0.00
2013-10-24,80.2,69.2,60.6,53.7,49.4,43.7,62,50,39,30.24,30.02,7,0,7,0.00
2013-10-25,72.5,63.8,57.3,49.6,45.5,41.7,63,52,42,30.35,30.19,7,0,7,0.00
2013-10-26,75.7,66.2,59.9,63.5,56.0,47.4,84,70,59,30.19,29.97,18,0,18,1.33
2013-10-27,69.8,64.9,62.4,60.2,58.5,56.1,88,80,71,30.09,29.97,0,0,0,0.00
2013-10-28,74.3,67.7,61.3,67.0,62.3,55.6,89,83,76,30.06,29.95,8,0,8,0.00
2013-10-29,75.7,72.4,69.9,69.8,67.6,65.7,87,85,81,30.03,29.94,22,2,22,0.00
2013-10-30,73.2,70.4,67.2,69.3,66.9,64.4,91,89,84,29.97,29.74,8,1,8,0.07
2013-10-31,74.4,68.9,61.5,68.4,54.4,41.1,95,64,32,29.84,29.64,11,0,11,0.00
2013-11-1,76.2,64.7,54.8,51.6,48.2,43.3,74,56,38,30.05,29.78,8,0,8,0.00
2013-11-2,69.6,61.0,54.1,44.3,39.7,34.9,60,47,30,30.25,30.05,6,0,6,0.00
2013-11-3,67.4,59.2,50.1,46.0,40.9,37.8,67,52,36,30.17,29.92,22,1,22,0.00
2013-11-4,63.3,59.4,57.3,59.5,53.2,46.0,92,80,59,30.04,29.93,8,0,8,0.33
2013-11-5,69.4,65.1,60.9,67.1,63.1,58.6,95,93,90,30.00,29.88,9,1,9,0.10
2013-11-6,69.6,56.9,48.3,67.4,49.1,39.2,93,76,57,30.31,29.91,10,1,10,0.27
2013-11-7,64.7,54.4,43.7,46.6,40.5,36.9,79,61,41,30.46,30.31,5,0,5,0.00
2013-11-8,66.7,58.1,49.6,45.3,42.2,38.7,75,57,38,30.33,30.07,8,1,8,0.00
2013-11-9,70.3,62.3,57.3,54.1,48.6,43.5,67,61,54,30.16,30.05,10,1,10,0.00
2013-11-10,64.2,60.0,56.1,51.2,48.6,46.5,72,66,61,30.28,30.15,2,0,2,0.00
2013-11-11,73.7,62.3,51.6,55.4,51.0,45.6,82,67,52,30.23,30.10,5,0,5,0.00
2013-11-12,62.7,53.7,42.0,55.6,35.0,21.2,79,52,29,30.64,30.23,10,1,10,0.00
2013-11-13,55.5,44.7,35.7,30.7,25.4,22.1,65,48,31,30.63,30.31,7,0,7,0.00
2013-11-14,59.0,49.9,39.5,45.3,31.8,26.2,68,51,31,30.32,29.96,8,1,8,0.00
2013-11-15,72.8,62.2,53.2,58.0,52.0,45.3,84,70,50,29.96,29.78,8,1,8,0.00
2013-11-16,78.6,70.0,63.3,68.2,62.5,57.9,86,78,60,29.81,29.62,9,2,9,0.00
2013-11-17,86.5,75.3,67.6,68.4,57.5,40.2,89,58,29,29.98,29.65,8,0,8,0.00
2013-11-18,72.5,66.8,60.0,39.9,34.6,31.6,40,31,23,30.13,29.98,6,0,6,0.00
2013-11-19,71.4,63.2,58.4,38.6,35.4,32.2,43,36,26,30.13,29.96,8,1,8,0.00
2013-11-20,65.1,59.7,54.3,54.6,43.5,35.2,76,56,43,29.98,29.84,12,1,12,0.00
2013-11-21,72.6,64.5,45.5,68.5,59.9,39.2,90,85,74,30.19,29.89,18,1,18,0.18
2013-11-22,45.5,38.8,36.1,39.3,34.0,31.5,89,83,76,30.40,30.19,18,2,18,0.19
2013-11-23,43.8,39.4,37.2,40.1,34.3,27.7,91,82,64,30.50,30.38,14,2,14,0.00
2013-11-24,42.0,37.2,35.7,32.2,27.2,23.8,73,67,58,30.53,30.28,8,0,8,0.02
2013-11-25,41.5,37.4,35.4,37.2,33.2,28.5,88,85,72,30.30,30.09,8,0,8,0.38
2013-11-26,53.2,42.7,36.6,38.3,32.3,25.5,90,69,44,30.33,30.10,9,1,9,0.00
2013-11-27,53.2,40.5,32.9,28.8,21.7,17.8,62,48,30,30.43,30.29,9,0,9,0.00
2013-11-28,57.7,43.5,33.0,33.1,26.7,22.1,68,53,34,30.40,30.29,7,0,7,0.00
2013-11-29,59.7,47.1,35.2,43.2,33.7,26.6,73,60,42,30.46,30.28,7,0,7,0.00
2013-11-30,66.3,55.4,45.6,52.1,45.7,36.8,81,70,59,30.29,30.08,8,0,8,0.00
2013-12-1,67.2,60.1,54.3,57.7,53.6,48.2,88,79,69,30.11,29.84,13,0,13,0.00
2013-12-2,71.0,58.7,48.7,52.1,46.7,41.7,80,66,48,29.85,29.61,5,0,5,0.00
2013-12-3,74.8,59.8,48.3,45.1,41.7,38.5,79,54,28,29.62,29.46,4,0,4,0.00
2013-12-4,79.7,64.7,55.5,52.3,44.5,35.7,61,48,38,29.85,29.53,8,0,8,0.00
2013-12-5,55.2,39.1,32.1,35.7,25.2,19.0,82,59,46,30.14,29.84,17,1,17,0.02
2013-12-6,33.6,29.2,26.6,28.7,23.6,20.4,85,79,74,30.47,30.07,0,0,0,0.00
2013-12-7,35.7,27.0,24.0,29.6,19.8,15.6,83,74,70,30.49,30.21,0,0,0,0.00
2013-12-8,37.2,31.4,27.3,31.5,26.8,22.2,87,83,80,30.22,29.99,3,0,3,0.03
2013-12-9,36.1,33.9,30.0,30.5,27.7,20.3,87,78,66,30.37,30.10,9,0,9,0.00
2013-12-10,48.7,32.3,24.0,27.7,20.2,15.3,70,62,41,30.48,30.29,7,0,7,0.18
2013-12-11,57.3,38.3,29.6,37.4,27.4,22.5,76,65,43,30.54,30.26,7,0,7,0.04
2013-12-12,51.2,40.4,30.7,35.1,29.5,23.2,75,65,50,30.56,30.25,5,0,5,0.00
2013-12-13,47.1,44.4,42.6,44.6,37.4,31.5,92,77,64,30.25,29.74,22,1,22,0.00
2013-12-14,48.7,42.6,36.6,45.6,35.6,27.4,92,77,57,30.28,29.72,9,1,9,0.00
2013-12-15,61.8,46.2,33.6,37.4,30.6,26.3,76,57,33,30.30,30.16,8,0,8,0.00
2013-12-16,67.8,53.3,41.5,37.4,34.5,30.6,66,51,32,30.19,30.08,9,0,9,0.00
2013-12-17,71.4,55.3,42.6,41.0,36.6,31.9,68,51,32,30.24,30.14,1,0,1,0.00
2013-12-18,70.5,57.0,43.3,47.5,40.9,33.8,71,57,33,30.21,29.94,9,1,9,0.00
2013-12-19,71.7,62.6,55.0,60.8,54.2,46.8,84,74,62,29.94,29.69,12,2,12,0.00
2013-12-20,68.1,57.1,37.9,61.9,50.7,32.7,84,79,71,29.81,29.70,9,1,9,0.00
2013-12-21,51.9,44.6,38.1,49.7,41.6,33.4,94,89,79,29.76,29.50,14,0,14,0.94
2013-12-22,46.5,40.2,34.3,43.9,31.4,25.5,91,71,55,30.35,29.74,11,1,11,0.00
2013-12-23,51.9,39.6,31.1,32.1,27.6,24.0,77,63,42,30.50,30.32,1,0,1,0.00
2013-12-24,55.4,42.1,31.2,34.8,29.3,22.9,73,61,44,30.49,30.19,8,1,8,0.00
2013-12-25,60.9,47.3,39.3,43.6,34.7,29.2,77,62,44,30.37,30.19,9,0,9,0.00
2013-12-26,60.0,45.3,35.4,39.0,31.1,27.5,76,59,35,30.40,30.28,4,0,4,0.00
2013-12-27,60.4,47.5,36.8,41.7,33.9,28.2,73,60,43,30.41,30.27,2,0,2,0.00
2013-12-28,63.3,51.4,40.8,44.4,37.9,33.1,77,61,45,30.27,29.91,8,0,8,0.00
2013-12-29,54.6,42.3,33.8,44.0,32.3,23.5,74,68,54,30.25,29.88,9,1,9,0.00
2013-12-30,50.9,38.4,30.9,24.4,20.7,16.7,66,50,34,30.36,30.20,8,0,8,0.00
2013-12-31,58.8,43.5,31.8,29.8,25.0,20.6,67,49,32,30.38,30.14,8,0,8,0.00
2014-1-1,70.3,51.3,39.0,46.9,34.8,23.1,67,54,38,30.18,29.81,10,1,10,0.00
2014-1-2,50.7,37.3,27.3,24.8,19.2,15.6,62,49,33,30.45,30.18,9,1,9,0.00